DW3384 Weather Reports


Display with metric or nautical units.
time (UTC)temp
F
wind
direction
speed
MPH
gust
MPH
rain 1hr
in
rain 24hr
in
rain mn
in
humidity
%
barometer
mb
20260505183022 56 9 9.0 14.0 0.00 0.00 0.00 50 1003.7
20260505181521 56 58 6.0 12.0 0.00 0.00 0.00 50 1003.5
20260505180019 56 86 3.0 10.0 0.00 0.00 0.00 50 1003.6
20260505174518 56 37 4.0 9.0 0.00 0.00 0.00 49 1003.5
20260505173035 56 40 3.0 15.0 0.00 0.00 0.00 51 1003.3
20260505171518 56 34 2.0 11.0 0.00 0.00 0.00 50 1003.4
20260505170022 56 54 3.0 11.0 0.00 0.00 0.00 50 1003.1
20260505164532 55 351 5.0 15.0 0.00 0.00 0.00 51 1002.9
20260505163014 55 27 4.0 11.0 0.00 0.00 0.00 52 1002.7
20260505161510 55 22 3.0 14.0 0.00 0.00 0.00 54 1002.5
20260505153006 55 327 8.0 21.0 0.00 0.00 0.00 55 1001.6
20260505151605 55 60 3.0 11.0 0.00 0.00 0.00 56 1001.4
20260505124537 55 30 6.0 14.0 0.00 0.00 0.00 51 998.8
20260505123029 56 355 8.0 20.0 0.00 0.00 0.00 51 998.3
20260505121530 56 317 4.0 16.0 0.00 0.00 0.00 52 998.1
20260505120024 56 360 9.0 20.0 0.00 0.00 0.00 50 997.5
20260505114532 57 336 8.0 22.0 0.00 0.00 0.00 51 997.2
20260505113017 58 330 11.0 21.0 0.00 0.00 0.00 51 997.1
20260505111513 59 42 4.0 17.0 0.00 0.00 0.00 53 997.0
20260505101603 60 355 7.0 15.0 0.00 0.00 0.00 69 995.0
20260505100055 60 355 8.0 17.0 0.00 0.00 0.00 69 994.2
20260505094553 62 11 5.0 13.0 0.00 0.00 0.00 69 993.9
20260505093046 64 328 5.0 10.0 0.00 0.00 0.00 59 993.4
20260505091553 66 338 1.0 6.0 0.00 0.00 0.00 38 993.1
20260505090051 69 304 3.0 9.0 0.00 0.00 0.00 24 992.6
20260505084537 70 276 6.0 11.0 0.00 0.00 0.00 23 992.1
20260505083040 75 322 7.0 15.0 0.00 0.00 0.00 19 992.0
20260505081545 74 262 9.0 16.0 0.00 0.00 0.00 21 991.6
20260505080037 75 263 9.0 16.0 0.00 0.00 0.00 21 991.3
20260505074523 75 248 7.0 12.0 0.00 0.00 0.00 21 991.3
20260505073021 75 257 7.0 13.0 0.00 0.00 0.00 21 991.6
20260505071525 76 272 7.0 14.0 0.00 0.00 0.00 20 991.8
20260505070023 75 252 8.0 14.0 0.00 0.00 0.00 20 991.8
20260505064516 75 254 7.0 13.0 0.00 0.00 0.00 20 991.9
20260505063015 75 279 6.0 12.0 0.00 0.00 0.00 21 992.0
20260505061523 74 270 7.0 14.0 0.00 0.00 0.00 21 992.1
20260505060011 75 267 6.0 13.0 0.00 0.00 0.00 20 992.2
20260505054513 75 221 5.0 10.0 0.00 0.00 0.00 19 992.2
20260505053004 74 239 8.0 13.0 0.00 0.00 0.00 20 992.4
20260505051503 75 233 4.0 9.0 0.00 0.00 0.00 20 992.4
20260505041559 72 228 3.0 9.0 0.00 0.00 0.00 26 992.7
20260505040100 71 248 2.0 3.0 0.00 0.00 0.00 28 992.7
20260505034558 73 232 1.0 3.0 0.00 0.00 0.00 27 992.8
20260505033058 74 230 1.0 2.0 0.00 0.00 0.00 24 992.8
20260505031605 76 244 1.0 3.0 0.00 0.00 0.00 23 992.7
20260505030057 77 248 1.0 3.0 0.00 0.00 0.00 22 992.6
20260505024609 78 184 2.0 4.0 0.00 0.00 0.00 21 992.3
20260505023056 79 184 1.0 4.0 0.00 0.00 0.00 20 992.3
20260505021611 79 206 1.0 3.0 0.00 0.00 0.00 20 992.3
20260505020054 80 209 1.0 4.0 0.00 0.00 0.00 20 992.1
20260505014554 81 228 1.0 3.0 0.00 0.00 0.00 19 992.1
20260505013054 82 244 1.0 3.0 0.00 0.00 0.00 18 992.1
20260505011557 84 225 2.0 6.0 0.00 0.00 0.00 18 991.9
20260505010052 85 269 3.0 7.0 0.00 0.00 0.00 17 991.9
20260505004551 85 285 5.0 10.0 0.00 0.00 0.00 16 992.1
20260505003049 86 271 5.0 12.0 0.00 0.00 0.00 16 992.1
20260505001548 86 264 8.0 16.0 0.00 0.00 0.00 16 992.3
20260505000046 87 260 9.0 16.0 0.00 0.00 0.00 15 992.4
20260504234543 87 246 13.0 20.0 0.00 0.00 0.00 15 992.7
20260504233056 87 300 11.0 20.0 0.00 0.00 0.00 15 992.7
20260504231542 87 257 10.0 20.0 0.00 0.00 0.00 15 992.7
20260504230043 88 270 13.0 23.0 0.00 0.00 0.00 15 992.9
20260504224540 88 260 13.0 26.0 0.00 0.00 0.00 14 993.1
20260504223041 89 259 14.0 21.0 0.00 0.00 0.00 14 992.9
20260504221545 89 273 15.0 22.0 0.00 0.00 0.00 13 993.0
20260504220051 89 261 10.0 23.0 0.00 0.00 0.00 14 993.2
20260504214537 89 265 9.0 20.0 0.00 0.00 0.00 15 993.2
20260504213034 89 250 11.0 26.0 0.00 0.00 0.00 15 993.5
20260504211532 89 292 11.0 19.0 0.00 0.00 0.00 16 993.3
20260504210031 90 306 14.0 26.0 0.00 0.00 0.00 15 993.7
20260504204541 90 246 6.0 20.0 0.00 0.00 0.00 16 993.8
20260504203027 90 221 9.0 19.0 0.00 0.00 0.00 15 994.0
20260504201524 90 215 11.0 17.0 0.00 0.00 0.00 15 994.3
20260504200023 90 257 8.0 13.0 0.00 0.00 0.00 16 994.6
20260504194519 90 279 7.0 16.0 0.00 0.00 0.00 16 995.0
20260504193016 89 259 4.0 19.0 0.00 0.00 0.00 14 995.4
20260504191515 89 286 5.0 16.0 0.00 0.00 0.00 13 995.6
20260504190011 88 202 4.0 11.0 0.00 0.00 0.00 15 995.8
20260504184513 87 260 7.0 14.0 0.00 0.00 0.00 15 996.0